Weather History for Slayton, MN

Change the Weather History Date:

Monday, June 9, 2014

  Actual Average (KOTG) Record (KOTG)
Temperature  
Mean Temperature 60 °F -  
Max Temperature 67 °F 72 °F 92 °F (1985)
Min Temperature 53 °F 53 °F 43 °F (1980)
Degree Days  
Heating Degree Days 5    
Growing Degree Days 10 (Base 50)    
Moisture  
Dew Point 52 °F    
Average Humidity 76    
Maximum Humidity 93    
Minimum Humidity 57    
Precipitation  
Precipitation 0.15 in - - ()
Sea Level Pressure  
Sea Level Pressure 30.03 in    
Wind  
Wind Speed 2 mph (NE)    
Max Wind Speed 9 mph    
Max Gust Speed -    
Visibility 10 miles    
Events Rain    
Averages and records for this station are not official NWS values.
T = Trace of Precipitation, MM = Missing Value Source: NWS Daily Summary

Daily Weather History Graph

Daily Weather History Graph

Search for Another Location

Airport:

Trip Planner

Search our weather history database for the weather conditions in past years. The results will help you decide how hot, cold, wet, or windy it might be!

Date:

Astronomy

Jun. 09, 2014 Rise Set
Actual Time 5:40 AM CDT 9:04 PM CDT
Civil Twilight 5:04 AM CDT 9:40 PM CDT
Nautical Twilight 4:17 AM CDT 10:27 PM CDT
Astronomical Twilight 3:18 AM CDT 11:27 PM CDT
Moon 5:20 PM CDT (6/9) 3:15 AM CDT (6/9)
Length of Visible Light 16h 36m
Length of Day
15h 24m
Waxing Gibbous, 85% of the Moon is Illuminated
Jun 9
Waxing Gibbous
Jun 12
Full
Jun 19
Last Quarter
Jun 27
New
Jul 5
First Quarter

Hourly Weather History & Observations

Time (CDT) Temp. Dew Point Humidity Pressure Visibility Wind Dir Wind Speed Gust Speed Precip Events Conditions
12:14 AM 58.6 °F 46.0 °F 63% 30.05 in 10.0 mi Calm Calm - N/A   Overcast
12:34 AM 59.7 °F 44.2 °F 57% 30.05 in 10.0 mi Calm Calm - N/A   Overcast
12:54 AM 59.0 °F 45.7 °F 61% 30.05 in 10.0 mi Calm Calm - N/A   Overcast
1:14 AM 58.5 °F 45.5 °F 62% 30.04 in 10.0 mi Calm Calm - N/A   Overcast
1:33 AM 58.1 °F 46.4 °F 65% 30.04 in 10.0 mi Calm Calm - N/A   Overcast
1:54 AM 57.6 °F 47.7 °F 70% 30.04 in 10.0 mi Calm Calm - N/A   Overcast
2:14 AM 57.7 °F 48.0 °F 70% 30.04 in 10.0 mi Calm Calm - N/A   Light Drizzle
2:34 AM 57.2 °F 49.6 °F 76% 30.04 in 10.0 mi Calm Calm - N/A Rain Light Rain
2:54 AM 56.3 °F 50.0 °F 79% 30.04 in 10.0 mi Calm Calm - N/A Rain Light Rain
3:14 AM 56.3 °F 50.4 °F 80% 30.04 in 10.0 mi Calm Calm - N/A Rain Light Rain
3:33 AM 56.5 °F 50.2 °F 79% 30.05 in 10.0 mi Calm Calm - N/A Rain Light Rain
3:54 AM 55.4 °F 51.1 °F 85% 30.05 in 10.0 mi Calm Calm - 0.01 in Rain Light Rain
4:14 AM 55.4 °F 51.1 °F 85% 30.05 in 10.0 mi Calm Calm - 0.02 in Rain Light Rain
4:34 AM 54.9 °F 51.8 °F 89% 30.04 in 10.0 mi Calm Calm - 0.04 in Rain Light Rain
4:54 AM 54.5 °F 50.7 °F 87% 30.04 in 10.0 mi Calm Calm - 0.06 in Rain Light Rain
5:14 AM 54.1 °F 50.7 °F 88% 30.04 in 10.0 mi Calm Calm - 0.01 in Rain Light Rain
5:34 AM 54.0 °F 50.5 °F 88% 30.05 in 10.0 mi Calm Calm - 0.02 in Rain Rain
5:54 AM 53.6 °F 50.9 °F 91% 30.06 in 10.0 mi Calm Calm - 0.04 in Rain Light Rain
6:14 AM 53.8 °F 51.8 °F 93% 30.06 in 10.0 mi Calm Calm - 0.01 in Rain Rain
6:34 AM 53.6 °F 50.9 °F 91% 30.07 in 10.0 mi North 6.9 mph - 0.02 in Rain Light Rain
6:53 AM 53.6 °F 50.0 °F 88% 30.07 in 10.0 mi North 6.9 mph - 0.03 in Rain Light Rain
7:14 AM 53.6 °F 50.7 °F 90% 30.06 in 10.0 mi Calm Calm - N/A Rain Light Rain
7:34 AM 53.8 °F 50.5 °F 89% 30.07 in 10.0 mi North 8.1 mph - N/A   Overcast
7:54 AM 53.6 °F 50.4 °F 89% 30.06 in 10.0 mi North 9.2 mph - N/A Rain Rain
8:14 AM 53.8 °F 50.4 °F 88% 30.06 in 10.0 mi North 9.2 mph - N/A Rain Light Rain
8:34 AM 54.0 °F 50.7 °F 89% 30.07 in 10.0 mi North 6.9 mph - N/A Rain Light Rain
8:54 AM 54.5 °F 50.9 °F 88% 30.07 in 10.0 mi Calm Calm - N/A   Light Drizzle
9:14 AM 54.5 °F 50.7 °F 87% 30.07 in 7.0 mi NE 5.8 mph - N/A Rain Light Rain
10:14 AM 54.5 °F 51.8 °F 91% 30.06 in 10.0 mi East 9.2 mph - 0.01 in Rain Light Rain
10:34 AM 54.5 °F 51.4 °F 89% 30.07 in 10.0 mi NNE 8.1 mph - 0.01 in Rain Light Rain
10:54 AM 55.4 °F 51.8 °F 88% 30.06 in 10.0 mi Calm Calm - 0.01 in   Mostly Cloudy
11:34 AM 57.6 °F 52.3 °F 83% 30.06 in 10.0 mi NE 9.2 mph - N/A   Scattered Clouds
11:54 AM 58.5 °F 52.9 °F 82% 30.06 in 10.0 mi NE 6.9 mph - N/A   Mostly Cloudy
12:14 PM 59.7 °F 53.1 °F 79% 30.06 in 10.0 mi Calm Calm - N/A   Overcast
12:34 PM 60.3 °F 54.0 °F 80% 30.05 in 10.0 mi East 5.8 mph - N/A   Mostly Cloudy
1:15 PM 60.8 °F 54.3 °F 79% 30.05 in 10.0 mi ENE 5.8 mph - N/A   Mostly Cloudy
1:34 PM 61.0 °F 54.5 °F 79% 30.04 in 10.0 mi Calm Calm - N/A   Mostly Cloudy
1:54 PM 61.9 °F 55.2 °F 79% 30.04 in 10.0 mi Calm Calm - N/A   Mostly Cloudy
3:14 PM 63.9 °F 54.9 °F 72% 30.02 in 10.0 mi NE 5.8 mph - N/A   Scattered Clouds
3:36 PM 64.6 °F 53.8 °F 68% 30.02 in 10.0 mi Calm Calm - N/A   Clear
3:55 PM 65.8 °F 54.0 °F 65% 30.01 in 10.0 mi Calm Calm - N/A   Scattered Clouds
4:14 PM 65.7 °F 54.0 °F 66% 30.01 in 10.0 mi NE 4.6 mph - N/A   Scattered Clouds
4:34 PM 65.7 °F 52.7 °F 63% 30.01 in 10.0 mi Calm Calm - N/A   Scattered Clouds
4:54 PM 66.2 °F 52.2 °F 61% 30.00 in 10.0 mi Calm Calm - N/A   Scattered Clouds
5:14 PM 66.4 °F 51.8 °F 59% 30.01 in 7.0 mi ENE 4.6 mph - N/A   Scattered Clouds
5:34 PM 67.1 °F 52.3 °F 59% 30.01 in 10.0 mi ENE 8.1 mph - N/A   Scattered Clouds
5:54 PM 66.6 °F 52.3 °F 60% 30.00 in 10.0 mi ENE 5.8 mph - N/A   Mostly Cloudy
6:14 PM 66.6 °F 52.3 °F 60% 30.00 in 10.0 mi NE 6.9 mph - N/A   Scattered Clouds
6:34 PM 66.2 °F 51.6 °F 59% 30.00 in 10.0 mi NNE 4.6 mph - N/A   Scattered Clouds
6:54 PM 67.1 °F 52.0 °F 58% 29.99 in 10.0 mi ENE 6.9 mph - N/A   Scattered Clouds
7:14 PM 66.2 °F 50.9 °F 58% 29.99 in 10.0 mi NE 4.6 mph - N/A   Clear
7:34 PM 66.6 °F 51.6 °F 59% 29.99 in 10.0 mi NE 5.8 mph - N/A   Clear
7:53 PM 66.0 °F 52.2 °F 61% 29.99 in 10.0 mi East 6.9 mph - N/A   Clear
8:14 PM 65.3 °F 52.2 °F 62% 29.99 in 10.0 mi East 5.8 mph - N/A   Clear
8:34 PM 63.7 °F 52.5 °F 67% 29.99 in 10.0 mi East 4.6 mph - N/A   Clear
8:54 PM 63.9 °F 52.7 °F 67% 29.99 in 7.0 mi East 4.6 mph - N/A   Clear
9:14 PM 61.7 °F 53.1 °F 73% 29.99 in 10.0 mi East 4.6 mph - N/A   Clear
9:34 PM 60.8 °F 53.4 °F 77% 29.99 in 10.0 mi ENE 4.6 mph - N/A   Clear
9:54 PM 59.9 °F 53.6 °F 80% 30.00 in 10.0 mi East 4.6 mph - N/A   Clear
10:14 PM 59.9 °F 53.6 °F 80% 30.01 in 10.0 mi East 4.6 mph - N/A   Clear
10:34 PM 59.2 °F 53.8 °F 82% 30.01 in 10.0 mi East 4.6 mph - N/A   Clear
10:54 PM 58.6 °F 53.8 °F 84% 30.01 in 10.0 mi East 4.6 mph - N/A   Clear
11:13 PM 59.0 °F 54.0 °F 83% 30.01 in 10.0 mi Calm Calm - N/A   Clear
11:34 PM 58.1 °F 53.8 °F 86% 30.01 in 10.0 mi Calm Calm - N/A   Clear
11:54 PM 57.2 °F 54.0 °F 89% 30.00 in 10.0 mi Calm Calm - N/A   Clear